WOLF11 ESPA-ESPA

Flight info

Callsign WOLF11
Flight time 1h 19m
Altitude 20000
Route ESPA/14 DCT ARJUD DCT LUKIG DCT ESPA/14
Aircraft SB39/M-SDFGR/S

Departure

Time 2026-05-07 15:29
Airport Luleå Airport (ESPA)

Arrival

Time 2026-05-07 16:48
Airport Luleå Airport (ESPA)
Time Latitude Longitude Altitude Speed Heading
2026-05-07 15:09 65.54551 22.10900 51 ft 0 kts 64°
2026-05-07 15:26 65.54552 22.10905 51 ft 3 kts 43°
2026-05-07 15:26 65.54713 22.10762 53 ft 10 kts 318°
2026-05-07 15:26 65.54759 22.10662 54 ft 8 kts 316°
2026-05-07 15:27 65.54793 22.10585 55 ft 6 kts 316°
2026-05-07 15:27 65.54825 22.10510 56 ft 7 kts 318°
2026-05-07 15:27 65.54908 22.10380 57 ft 12 kts 351°
2026-05-07 15:27 65.54977 22.10405 58 ft 9 kts 26°
2026-05-07 15:28 65.55026 22.10531 58 ft 13 kts 63°
2026-05-07 15:28 65.55033 22.10723 58 ft 6 kts 96°
2026-05-07 15:28 65.55011 22.10797 55 ft 7 kts 137°
2026-05-07 15:28 65.54819 22.11221 51 ft 142 kts 137°
2026-05-07 15:29 65.53515 22.14505 592 ft 336 kts 127°
2026-05-07 15:29 65.52671 22.19241 1023 ft 308 kts 92°
2026-05-07 15:29 65.53484 22.23791 811 ft 304 kts 50°
2026-05-07 15:29 65.54833 22.27769 662 ft 305 kts 48°
2026-05-07 15:30 65.56473 22.30933 475 ft 303 kts 24°
2026-05-07 15:30 65.57778 22.31786 383 ft 302 kts
2026-05-07 15:31 65.59713 22.32452 336 ft 304 kts
2026-05-07 15:31 65.61825 22.32642 389 ft 302 kts 359°
2026-05-07 15:31 65.63938 22.32704 556 ft 303 kts 358°
2026-05-07 15:31 65.66041 22.32700 690 ft 302 kts 357°
2026-05-07 15:32 65.68133 22.32646 820 ft 302 kts 356°
2026-05-07 15:32 65.70200 22.32524 654 ft 302 kts 356°
2026-05-07 15:32 65.72290 22.32338 526 ft 302 kts 355°
2026-05-07 15:32 65.72655 22.32300 511 ft 303 kts 355°
2026-05-07 15:33 65.74602 22.32066 508 ft 300 kts 354°
2026-05-07 15:33 65.76688 22.31724 680 ft 301 kts 353°
2026-05-07 15:33 65.78766 22.31286 757 ft 300 kts 352°
2026-05-07 15:34 65.80841 22.30771 835 ft 298 kts 352°
2026-05-07 15:34 65.82904 22.30202 836 ft 299 kts 351°
2026-05-07 15:34 65.84961 22.29580 802 ft 297 kts 350°
2026-05-07 15:34 65.87018 22.28913 875 ft 296 kts 351°
2026-05-07 15:35 65.89047 22.28258 946 ft 298 kts 352°
2026-05-07 15:35 65.91112 22.27594 1048 ft 298 kts 351°
2026-05-07 15:35 65.93175 22.26932 1203 ft 298 kts 351°
2026-05-07 15:35 65.95235 22.26270 1309 ft 301 kts 351°
2026-05-07 15:36 65.97301 22.25606 1355 ft 299 kts 351°
2026-05-07 15:36 65.99369 22.24938 1405 ft 299 kts 351°
2026-05-07 15:36 66.01440 22.24267 1429 ft 299 kts 351°
2026-05-07 15:36 66.03506 22.23598 1444 ft 299 kts 351°
2026-05-07 15:37 66.05564 22.22930 1459 ft 299 kts 351°
2026-05-07 15:37 66.07631 22.22257 1467 ft 299 kts 351°
2026-05-07 15:37 66.09664 22.21583 1503 ft 300 kts 351°
2026-05-07 15:37 66.11723 22.20883 1549 ft 300 kts 351°
2026-05-07 15:38 66.13785 22.20187 1603 ft 300 kts 351°
2026-05-07 15:38 66.15849 22.19493 1658 ft 300 kts 351°
2026-05-07 15:38 66.17918 22.18797 1717 ft 301 kts 351°
2026-05-07 15:38 66.19975 22.18105 1782 ft 297 kts 352°
2026-05-07 15:39 66.22033 22.17410 1836 ft 297 kts 352°
2026-05-07 15:39 66.23421 22.16941 1880 ft 297 kts 352°
2026-05-07 15:39 66.25448 22.16254 1941 ft 296 kts 351°
2026-05-07 15:39 66.27495 22.15564 1995 ft 298 kts 352°
2026-05-07 15:40 66.29549 22.14869 2060 ft 296 kts 351°
2026-05-07 15:40 66.31602 22.14169 2131 ft 298 kts 352°
2026-05-07 15:40 66.33664 22.13459 2181 ft 298 kts 351°
2026-05-07 15:40 66.35721 22.12750 2242 ft 298 kts 351°
2026-05-07 15:41 66.37765 22.12044 2301 ft 296 kts 351°
2026-05-07 15:41 66.39825 22.11328 2358 ft 300 kts 351°
2026-05-07 15:41 66.41890 22.10609 2420 ft 301 kts 351°
2026-05-07 15:41 66.43961 22.09886 2477 ft 299 kts 351°
2026-05-07 15:42 66.46019 22.09167 2538 ft 301 kts 351°
2026-05-07 15:42 66.48083 22.08447 2599 ft 299 kts 351°
2026-05-07 15:42 66.50141 22.07731 2660 ft 300 kts 352°
2026-05-07 15:42 66.52208 22.07012 2724 ft 299 kts 351°
2026-05-07 15:43 66.54280 22.06291 2784 ft 301 kts 352°
2026-05-07 15:43 66.56325 22.05580 2849 ft 300 kts 352°
2026-05-07 15:43 66.58395 22.04860 2917 ft 299 kts 351°
2026-05-07 15:43 66.60467 22.04138 2985 ft 300 kts 351°
2026-05-07 15:44 66.62545 22.03412 3062 ft 299 kts 351°
2026-05-07 15:44 66.64624 22.02683 3135 ft 303 kts 352°
2026-05-07 15:44 66.66709 22.01951 3222 ft 300 kts 352°
2026-05-07 15:44 66.68781 22.01222 3300 ft 299 kts 352°
2026-05-07 15:45 66.70845 22.00499 3369 ft 300 kts 352°
2026-05-07 15:45 66.72919 21.99771 3436 ft 302 kts 352°
2026-05-07 15:45 66.74996 21.99041 3516 ft 303 kts 352°
2026-05-07 15:45 66.77086 21.98306 3581 ft 302 kts 352°
2026-05-07 15:46 66.81257 21.96835 3737 ft 302 kts 352°
2026-05-07 15:46 66.83313 21.96111 3812 ft 304 kts 352°
2026-05-07 15:46 66.85398 21.95375 3896 ft 303 kts 352°
2026-05-07 15:47 66.87489 21.94636 3985 ft 303 kts 352°
2026-05-07 15:47 66.89578 21.93897 4068 ft 303 kts 352°
2026-05-07 15:47 66.91663 21.93156 4157 ft 302 kts 352°
2026-05-07 15:47 66.93753 21.92414 4245 ft 304 kts 352°
2026-05-07 15:48 66.95850 21.91667 4340 ft 303 kts 352°
2026-05-07 15:48 66.97948 21.90921 4427 ft 305 kts 352°
2026-05-07 15:48 67.00051 21.90171 4523 ft 304 kts 352°
2026-05-07 15:48 67.02147 21.89422 4616 ft 304 kts 352°
2026-05-07 15:49 67.04242 21.88669 4714 ft 304 kts 352°
2026-05-07 15:49 67.06339 21.87914 4811 ft 304 kts 352°
2026-05-07 15:49 67.08439 21.87157 4898 ft 305 kts 351°
2026-05-07 15:49 67.10541 21.86400 4991 ft 305 kts 352°
2026-05-07 15:50 67.12669 21.86130 5031 ft 306 kts
2026-05-07 15:50 67.14766 21.86635 5012 ft 307 kts
2026-05-07 15:50 67.16879 21.87278 4983 ft 307 kts
2026-05-07 15:50 67.19000 21.87950 4955 ft 306 kts
2026-05-07 15:51 67.21116 21.88621 4920 ft 307 kts
2026-05-07 15:51 67.23232 21.89294 4886 ft 307 kts
2026-05-07 15:51 67.25346 21.89967 4850 ft 306 kts
2026-05-07 15:51 67.27459 21.90640 4812 ft 306 kts
2026-05-07 15:52 67.29573 21.91315 4772 ft 305 kts
2026-05-07 15:52 67.31678 21.92059 4720 ft 307 kts
2026-05-07 15:52 67.33780 21.92964 4664 ft 305 kts
2026-05-07 15:52 67.35875 21.93837 4569 ft 305 kts
2026-05-07 15:53 67.37870 21.92291 4230 ft 306 kts 327°
2026-05-07 15:53 67.38964 21.87792 4594 ft 307 kts 281°
2026-05-07 15:53 67.38317 21.82623 4089 ft 316 kts 218°
2026-05-07 15:53 67.36422 21.79686 4228 ft 319 kts 209°
2026-05-07 15:54 67.34450 21.77016 4169 ft 318 kts 208°
2026-05-07 15:54 67.32485 21.74383 4068 ft 319 kts 208°
2026-05-07 15:54 67.30514 21.71746 3952 ft 317 kts 208°
2026-05-07 15:54 67.28547 21.69120 3810 ft 318 kts 208°
2026-05-07 15:55 67.26611 21.66536 3669 ft 316 kts 208°
2026-05-07 15:55 67.24657 21.63917 3525 ft 316 kts 208°
2026-05-07 15:55 67.22708 21.61301 3376 ft 315 kts 208°
2026-05-07 15:55 67.20764 21.58693 3224 ft 314 kts 208°
2026-05-07 15:56 67.18819 21.56087 3059 ft 314 kts 208°
2026-05-07 15:56 67.16885 21.53498 2899 ft 313 kts 208°
2026-05-07 15:56 67.14948 21.50908 2749 ft 313 kts 208°
2026-05-07 15:56 67.13020 21.48332 2613 ft 311 kts 208°
2026-05-07 15:57 67.11096 21.45765 2578 ft 309 kts 208°
2026-05-07 15:57 67.09204 21.43247 2703 ft 310 kts 208°
2026-05-07 15:57 67.07289 21.40704 2896 ft 312 kts 208°
2026-05-07 15:57 67.05358 21.38140 3094 ft 312 kts 208°
2026-05-07 15:58 67.03428 21.35579 3284 ft 315 kts 208°
2026-05-07 15:58 67.01479 21.32995 3472 ft 315 kts 208°
2026-05-07 15:58 66.99527 21.30409 3663 ft 315 kts 208°
2026-05-07 15:58 66.97570 21.27815 3842 ft 316 kts 208°
2026-05-07 15:59 66.95613 21.25224 4022 ft 318 kts 208°
2026-05-07 15:59 66.93646 21.22621 4212 ft 320 kts 208°
2026-05-07 15:59 66.91670 21.20007 4403 ft 320 kts 208°
2026-05-07 15:59 66.89690 21.17389 4597 ft 321 kts 208°
2026-05-07 16:00 66.87707 21.14769 4790 ft 322 kts 208°
2026-05-07 16:00 66.85708 21.12129 4644 ft 323 kts 208°
2026-05-07 16:00 66.83723 21.09511 4154 ft 317 kts 208°
2026-05-07 16:00 66.81787 21.06961 4291 ft 318 kts 208°
2026-05-07 16:01 66.79810 21.04358 4442 ft 320 kts 208°
2026-05-07 16:01 66.77830 21.01753 4593 ft 321 kts 208°
2026-05-07 16:01 66.75845 20.99142 4756 ft 322 kts 208°
2026-05-07 16:01 66.73861 20.96534 4919 ft 321 kts 208°
2026-05-07 16:02 66.71869 20.93916 5087 ft 322 kts 208°
2026-05-07 16:02 66.69882 20.91308 5254 ft 323 kts 208°
2026-05-07 16:02 66.67881 20.88683 5423 ft 325 kts 208°
2026-05-07 16:02 66.65881 20.86061 5599 ft 324 kts 208°
2026-05-07 16:03 66.63896 20.83461 5772 ft 327 kts 208°
2026-05-07 16:03 66.61885 20.80828 5953 ft 326 kts 208°
2026-05-07 16:03 66.59866 20.78187 6138 ft 327 kts 208°
2026-05-07 16:03 66.57847 20.75546 6326 ft 327 kts 208°
2026-05-07 16:04 66.55822 20.72901 6507 ft 328 kts 208°
2026-05-07 16:04 66.53790 20.70249 6685 ft 330 kts 208°
2026-05-07 16:04 66.51752 20.67591 6873 ft 330 kts 208°
2026-05-07 16:04 66.49709 20.64927 7057 ft 331 kts 208°
2026-05-07 16:05 66.47663 20.62261 7247 ft 331 kts 208°
2026-05-07 16:05 66.45618 20.59597 7439 ft 332 kts 208°
2026-05-07 16:05 66.43567 20.56929 7644 ft 332 kts 208°
2026-05-07 16:05 66.41515 20.54262 7836 ft 333 kts 208°
2026-05-07 16:06 66.39456 20.51587 8037 ft 334 kts 208°
2026-05-07 16:06 66.37419 20.48944 8233 ft 335 kts 208°
2026-05-07 16:06 66.35346 20.46255 8362 ft 338 kts 208°
2026-05-07 16:06 66.33268 20.43562 8257 ft 335 kts 208°
2026-05-07 16:07 66.31202 20.40887 8152 ft 334 kts 208°
2026-05-07 16:07 66.29133 20.38210 8048 ft 335 kts 208°
2026-05-07 16:07 66.27072 20.35546 7945 ft 335 kts 208°
2026-05-07 16:07 66.25007 20.32879 7848 ft 333 kts 208°
2026-05-07 16:08 66.22944 20.30217 7748 ft 333 kts 208°
2026-05-07 16:08 66.20888 20.27567 7654 ft 331 kts 209°
2026-05-07 16:08 66.18844 20.24938 7562 ft 330 kts 209°
2026-05-07 16:08 66.16800 20.22313 7468 ft 331 kts 209°
2026-05-07 16:09 66.14761 20.19694 7383 ft 331 kts 209°
2026-05-07 16:09 66.12719 20.17076 7294 ft 330 kts 209°
2026-05-07 16:09 66.10711 20.14501 7204 ft 329 kts 209°
2026-05-07 16:09 66.08678 20.11896 7118 ft 329 kts 209°
2026-05-07 16:10 66.06646 20.09295 7029 ft 329 kts 209°
2026-05-07 16:10 66.04617 20.06700 6940 ft 329 kts 209°
2026-05-07 16:10 66.02590 20.04108 6851 ft 329 kts 209°
2026-05-07 16:10 66.00562 20.01518 6764 ft 329 kts 209°
2026-05-07 16:11 65.98536 19.98932 6681 ft 327 kts 209°
2026-05-07 16:11 65.96509 19.96347 6595 ft 327 kts 209°
2026-05-07 16:11 65.94487 19.93771 6506 ft 327 kts 209°
2026-05-07 16:11 65.92470 19.91203 6408 ft 326 kts 209°
2026-05-07 16:12 65.90482 19.88679 6315 ft 322 kts 210°
2026-05-07 16:12 65.88497 19.86164 6215 ft 320 kts 210°
2026-05-07 16:12 65.86517 19.83656 6120 ft 321 kts 210°
2026-05-07 16:12 65.84537 19.81151 6017 ft 321 kts 210°
2026-05-07 16:13 65.82560 19.78651 5919 ft 319 kts 209°
2026-05-07 16:13 65.80602 19.76179 5821 ft 320 kts 210°
2026-05-07 16:13 65.78627 19.73686 5722 ft 319 kts 210°
2026-05-07 16:13 65.76649 19.71193 5624 ft 320 kts 210°
2026-05-07 16:14 65.74674 19.68710 5526 ft 319 kts 210°
2026-05-07 16:14 65.72700 19.66229 5424 ft 319 kts 210°
2026-05-07 16:14 65.70730 19.63757 5328 ft 318 kts 209°
2026-05-07 16:14 65.68760 19.61285 5227 ft 319 kts 209°
2026-05-07 16:15 65.66789 19.58814 5122 ft 319 kts 210°
2026-05-07 16:15 65.64844 19.56375 5021 ft 318 kts 210°
2026-05-07 16:15 65.62877 19.53912 4910 ft 317 kts 210°
2026-05-07 16:15 65.60919 19.51462 4811 ft 316 kts 210°
2026-05-07 16:16 65.58962 19.49017 4704 ft 317 kts 210°
2026-05-07 16:16 65.57013 19.46578 4601 ft 315 kts 209°
2026-05-07 16:16 65.55062 19.44140 4492 ft 315 kts 210°
2026-05-07 16:16 65.53108 19.41702 4386 ft 315 kts 210°
2026-05-07 16:17 65.51162 19.39278 4282 ft 314 kts 210°
2026-05-07 16:17 65.49218 19.36858 4170 ft 315 kts 209°
2026-05-07 16:17 65.47280 19.34447 4061 ft 314 kts 210°
2026-05-07 16:17 65.45366 19.32070 3956 ft 313 kts 209°
2026-05-07 16:18 65.43429 19.29663 3839 ft 313 kts 209°
2026-05-07 16:18 65.41498 19.27268 3945 ft 313 kts 209°
2026-05-07 16:18 65.39560 19.24864 4124 ft 313 kts 210°
2026-05-07 16:18 65.37614 19.22453 4288 ft 315 kts 210°
2026-05-07 16:19 65.35671 19.20046 4450 ft 317 kts 209°
2026-05-07 16:19 65.33721 19.17632 4610 ft 314 kts 210°
2026-05-07 16:19 65.31779 19.15229 4771 ft 314 kts 210°
2026-05-07 16:19 65.29835 19.12823 4924 ft 316 kts 210°
2026-05-07 16:20 65.27882 19.10408 5080 ft 315 kts 210°
2026-05-07 16:20 65.25932 19.07998 5234 ft 316 kts 210°
2026-05-07 16:20 65.23974 19.05581 5389 ft 317 kts 210°
2026-05-07 16:20 65.22014 19.03161 5547 ft 318 kts 210°
2026-05-07 16:21 65.20051 19.01091 5637 ft 321 kts 199°
2026-05-07 16:21 65.17554 18.99523 5639 ft 442 kts 196°
2026-05-07 16:21 65.14578 18.97779 5232 ft 440 kts 194°
2026-05-07 16:21 65.11578 18.96273 4666 ft 438 kts 193°
2026-05-07 16:22 65.08622 18.95029 4034 ft 436 kts 191°
2026-05-07 16:22 65.05637 18.93961 4008 ft 433 kts 190°
2026-05-07 16:22 65.02656 18.92926 4121 ft 433 kts 190°
2026-05-07 16:22 64.99669 18.91892 4191 ft 433 kts 190°
2026-05-07 16:23 64.96681 18.90858 4228 ft 435 kts 190°
2026-05-07 16:23 64.93688 18.89823 4245 ft 437 kts 190°
2026-05-07 16:23 64.90690 18.88810 4285 ft 433 kts 190°
2026-05-07 16:23 64.87693 18.87801 4475 ft 435 kts 189°
2026-05-07 16:24 64.84682 18.86785 4664 ft 437 kts 189°
2026-05-07 16:24 64.81675 18.85773 5183 ft 439 kts 190°
2026-05-07 16:24 64.78644 18.84752 5852 ft 442 kts 190°
2026-05-07 16:24 64.75585 18.83720 6574 ft 441 kts 190°
2026-05-07 16:25 64.72512 18.82898 7993 ft 449 kts 186°
2026-05-07 16:25 64.69367 18.82562 9488 ft 457 kts 182°
2026-05-07 16:25 64.67340 18.82654 11517 ft 415 kts 179°
2026-05-07 16:25 64.64123 18.83010 15150 ft 490 kts 179°
2026-05-07 16:26 64.60670 18.83608 16257 ft 502 kts 174°
2026-05-07 16:26 64.57217 18.85186 17402 ft 504 kts 168°
2026-05-07 16:26 64.53901 18.87944 20020 ft 516 kts 154°
2026-05-07 16:26 64.50841 18.92800 23013 ft 552 kts 140°
2026-05-07 16:27 64.48284 18.99773 25054 ft 585 kts 121°
2026-05-07 16:27 64.46774 19.08546 25581 ft 572 kts 95°
2026-05-07 16:27 64.47496 19.16895 26004 ft 504 kts 60°
2026-05-07 16:27 64.49119 19.23848 25916 ft 483 kts 62°
2026-05-07 16:28 64.50619 19.31328 25245 ft 524 kts 64°
2026-05-07 16:28 64.52213 19.38729 24608 ft 507 kts 59°
2026-05-07 16:28 64.53981 19.46132 23873 ft 532 kts 59°
2026-05-07 16:28 64.56001 19.53488 22580 ft 565 kts 52°
2026-05-07 16:29 64.58311 19.60443 21704 ft 527 kts 50°
2026-05-07 16:29 64.60656 19.67117 20602 ft 597 kts 49°
2026-05-07 16:29 64.63224 19.74291 19350 ft 526 kts 49°
2026-05-07 16:29 64.65608 19.80754 18997 ft 521 kts 48°
2026-05-07 16:30 64.67918 19.86995 16123 ft 500 kts 48°
2026-05-07 16:30 64.70248 19.93032 12044 ft 488 kts 45°
2026-05-07 16:30 64.72645 19.98713 10166 ft 481 kts 42°
2026-05-07 16:30 64.75176 20.04379 10062 ft 498 kts 42°
2026-05-07 16:31 64.77693 20.09805 10253 ft 453 kts 39°
2026-05-07 16:31 64.79562 20.13390 9794 ft 268 kts 38°
2026-05-07 16:31 64.80722 20.15766 9240 ft 184 kts 37°
2026-05-07 16:31 64.81552 20.17516 8765 ft 141 kts 37°
2026-05-07 16:32 64.82568 20.19603 8411 ft 320 kts 37°
2026-05-07 16:32 64.85215 20.24573 8286 ft 614 kts 37°
2026-05-07 16:32 64.88443 20.30581 8027 ft 575 kts 37°
2026-05-07 16:32 64.91519 20.36304 7999 ft 553 kts 37°
2026-05-07 16:33 64.94510 20.41874 7861 ft 543 kts 37°
2026-05-07 16:33 64.97451 20.47364 7722 ft 536 kts 37°
2026-05-07 16:33 65.00312 20.52827 7465 ft 536 kts 44°
2026-05-07 16:33 65.01016 20.60647 6136 ft 424 kts 145°
2026-05-07 16:34 64.98674 20.60876 3800 ft 362 kts 77°
2026-05-07 16:34 65.00669 20.65028 3025 ft 330 kts 45°
2026-05-07 16:34 65.01969 20.68552 3000 ft 265 kts 47°
2026-05-07 16:34 65.03165 20.71842 3002 ft 258 kts 47°
2026-05-07 16:35 65.04346 20.75107 3010 ft 260 kts 47°
2026-05-07 16:35 65.05517 20.78361 3023 ft 251 kts 47°
2026-05-07 16:35 65.06664 20.81534 3002 ft 250 kts 47°
2026-05-07 16:35 65.07780 20.84621 2986 ft 245 kts 47°
2026-05-07 16:36 65.08864 20.87624 2988 ft 241 kts 48°
2026-05-07 16:36 65.09900 20.90522 2990 ft 230 kts 47°
2026-05-07 16:36 65.10934 20.93420 2964 ft 229 kts 47°
2026-05-07 16:36 65.12020 20.96432 2986 ft 248 kts 47°
2026-05-07 16:37 65.13135 20.99677 3016 ft 246 kts 48°
2026-05-07 16:37 65.14241 21.02749 3013 ft 258 kts 47°
2026-05-07 16:37 65.15295 21.05743 3061 ft 242 kts 47°
2026-05-07 16:37 65.16351 21.08761 3069 ft 241 kts 48°
2026-05-07 16:38 65.17447 21.11838 3057 ft 250 kts 49°
2026-05-07 16:38 65.18539 21.14700 2978 ft 246 kts 45°
2026-05-07 16:38 65.19619 21.17733 2987 ft 228 kts 47°
2026-05-07 16:38 65.20683 21.20755 2992 ft 248 kts 47°
2026-05-07 16:39 65.21773 21.23818 2988 ft 238 kts 47°
2026-05-07 16:39 65.22911 21.26557 2958 ft 240 kts 45°
2026-05-07 16:39 65.24011 21.29792 2977 ft 235 kts 50°
2026-05-07 16:39 65.25050 21.32857 2991 ft 232 kts 47°
2026-05-07 16:40 65.26116 21.35735 2979 ft 238 kts 46°
2026-05-07 16:40 65.27192 21.38657 2974 ft 231 kts 47°
2026-05-07 16:40 65.28307 21.41697 2994 ft 255 kts 46°
2026-05-07 16:40 65.29423 21.44775 2977 ft 242 kts 47°
2026-05-07 16:41 65.30532 21.47819 2971 ft 239 kts 46°
2026-05-07 16:41 65.31624 21.50837 2990 ft 247 kts 49°
2026-05-07 16:41 65.32674 21.53859 3050 ft 222 kts 46°
2026-05-07 16:41 65.33649 21.56452 3059 ft 206 kts 43°
2026-05-07 16:42 65.34621 21.59086 2980 ft 222 kts 47°
2026-05-07 16:42 65.35633 21.61886 2991 ft 218 kts 47°
2026-05-07 16:42 65.36592 21.64552 2984 ft 222 kts 47°
2026-05-07 16:42 65.37606 21.67366 2990 ft 217 kts 47°
2026-05-07 16:43 65.38604 21.70151 2990 ft 223 kts 53°
2026-05-07 16:43 65.38404 21.71983 2931 ft 220 kts 332°
2026-05-07 16:43 65.39875 21.74172 2835 ft 259 kts 41°
2026-05-07 16:43 65.41274 21.76643 2947 ft 233 kts 29°
2026-05-07 16:44 65.42753 21.78867 2994 ft 269 kts 32°
2026-05-07 16:44 65.44210 21.81221 2946 ft 229 kts 32°
2026-05-07 16:44 65.45480 21.83247 2972 ft 208 kts 31°
2026-05-07 16:44 65.46705 21.85179 3008 ft 218 kts 31°
2026-05-07 16:45 65.47965 21.87137 3011 ft 208 kts 31°
2026-05-07 16:45 65.49181 21.89046 3013 ft 212 kts 31°
2026-05-07 16:45 65.50392 21.90933 3027 ft 208 kts 30°
2026-05-07 16:45 65.51597 21.92818 3007 ft 197 kts 31°
2026-05-07 16:46 65.52807 21.94727 3019 ft 208 kts 31°
2026-05-07 16:46 65.54000 21.96616 3016 ft 202 kts 31°
2026-05-07 16:46 65.55231 21.98540 3038 ft 216 kts 31°
2026-05-07 16:46 65.56450 22.00437 3021 ft 211 kts 31°
2026-05-07 16:47 65.57737 22.02418 3024 ft 217 kts 30°
2026-05-07 16:47 65.58491 22.04744 2470 ft 262 kts 161°
2026-05-07 16:47 65.56932 22.06509 742 ft 204 kts 136°
2026-05-07 16:47 65.56045 22.08472 365 ft 170 kts 137°
2026-05-07 16:48 65.55265 22.10213 93 ft 141 kts 135°
2026-05-07 16:48 65.54660 22.11548 51 ft 63 kts 137°
2026-05-07 16:48 65.54525 22.11877 45 ft 0 kts 137°
2026-05-07 16:49 65.54378 22.12210 43 ft 37 kts 139°
2026-05-07 16:49 65.54219 22.12527 41 ft 7 kts 184°
2026-05-07 16:49 65.54198 22.12435 41 ft 8 kts 240°
2026-05-07 16:49 65.54170 22.12316 41 ft 8 kts 240°
2026-05-07 16:50 65.54141 22.12190 41 ft 9 kts 240°
2026-05-07 16:50 65.54113 22.12063 41 ft 8 kts 243°
2026-05-07 16:50 65.54144 22.11926 42 ft 17 kts 323°
2026-05-07 16:50 65.54236 22.11760 44 ft 16 kts 322°
2026-05-07 16:51 65.54304 22.11635 45 ft 0 kts 323°
2026-05-07 16:52 65.54305 22.11634 45 ft 3 kts 323°
2026-05-07 16:52 65.54376 22.11504 46 ft 20 kts 322°
2026-05-07 16:52 65.54493 22.11292 49 ft 20 kts 322°
2026-05-07 16:53 65.54590 22.11067 51 ft 18 kts 313°
2026-05-07 16:53 65.54641 22.10868 52 ft 7 kts 232°
2026-05-07 16:53 65.54596 22.10816 49 ft 7 kts 202°
2026-05-07 16:53 65.54548 22.10839 50 ft 7 kts 142°
2026-05-07 16:54 65.54550 22.10884 51 ft 0 kts 50°